sat.trackr.live / text

‹ back to catalog

SBIRS GEO-1 (USA 230)

NORAD 37481 · 2011-019A

PAYLOAD ACTIVE UNKNOWN

§ Identity

Operator
Country
US
Launch date
2011-05-07
Launch site
AFETR
Launch vehicle
Mass (kg)
RCS (m²)
19.95

Purposes: comms

External: N2YO · Heavens-Above · Gunter

§ Orbital elements

Epoch: 2026-09-15T22:33:09.628128Z

Period
1,436.09 min
Inclination
4.7338°
Eccentricity
0.0001735
Mean motion
1.00272340 rev/d
Perigee alt
35,779.1 km
Apogee alt
35,793.8 km
Semi-major
42,164.6 km
B*
0.0000e+0
RAAN
52.9898°
Arg perigee
128.4122°
Mean anomaly
203.6032°
Rev number
5,630

§ Raw data

SBIRS GEO-1 (USA 230)1 37481U 11019A   26258.93969477  .00000095  00000+0  00000+0 0  99942 37481   4.7338  52.9898 0001735 128.4122 203.6032  1.00272340 56306

JSON: /api/v1/satellites/37481 · /tle

For live sub-satellite position, see the globe view (requires WebGL).

§ Visibility from observer

Set your observer location to see the next 7 days of passes ≥ 10°. The values pass through the URL so the page stays shareable.

No JS? Fill the form by hand. The geolocation button needs JavaScript.